Bookmark and Share
Track history (hours):
 

Fortunia

Last reported at 2014-Apr-23 20:33 UTC. Time now 2014-Apr-24 02:25 UTC.
Position N 37°40' W 000°25'.

Length 121 m; draft 6 m.

Type: Ship. MMSI: 304010638.

NotesDate/timePositionNaut miles runAvg speedWind from/ knotsBaromVisibWave heightAir tempDewpointWater temp
2014-Apr-23 20:33N 37°40' W 000°25'1010.2
2014-Apr-23 19:31N 37°32' W 000°32'1010.0
2014-Apr-23 18:34N 37°31' W 000°45'10 0.6
2014-Apr-23 02:32N 37°32' W 000°57'9 9.4
2014-Apr-23 01:33N 37°31' W 000°45'  
2014-Apr-16 15:28N 37°06' E 005°15'9 9.8
2014-Apr-16 14:33N 37°05' E 005°04'2110.5
2014-Apr-16 12:31N 37°03' E 004°37'1010.8
2014-Apr-16 11:33N 37°01' E 004°24'1111.2
2014-Apr-16 10:32N 37°01' E 004°10'1210.4
2014-Apr-16 09:25N 37°00' E 003°56'44 7.3
2014-Apr-16 03:26N 36°46' E 003°04'0 0.0
2014-Apr-15 15:24N 36°46' E 003°04'0 0.0
2014-Apr-15 09:30N 36°46' E 003°04'0 0.0
2014-Apr-15 08:29N 36°46' E 003°04'7 0.3
2014-Apr-14 08:30N 36°52' E 003°06'1010.3
2014-Apr-14 07:30N 37°01' E 003°01'10311.5
2014-Apr-13 22:33N 38°41' E 002°28'1110.5
2014-Apr-13 21:33N 38°51' E 002°25'1010.0
2014-Apr-13 20:33N 39°01' E 002°21'  

Dump ship's entire track history

sailing weather and tide predictions

Fortunia — V2OG3 — position and weather